| time (UTC) | temp C | wind direction | speed KPH | gust KPH | rain 1hr cm | rain 24hr cm | rain mn cm | humidity % | barometer mb |
| 20260831040041 | 20 | 160 | 0.0 | 3.2 | 0.00 | 1.14 | 0.00 | 91 | 1017.9 |
| 20260831034544 | 20 | 135 | 0.0 | 3.2 | 0.00 | 1.14 | 1.14 | 91 | 1017.9 |
| 20260831033042 | 20 | 212 | 0.0 | 4.8 | 0.00 | 1.14 | 1.14 | 91 | 1017.9 |
| 20260831031545 | 20 | 204 | 0.0 | 4.8 | 0.00 | 1.14 | 1.14 | 91 | 1018.0 |
| 20260831030047 | 20 | 0 | 0.0 | 1.6 | 0.00 | 1.14 | 1.14 | 91 | 1017.7 |
| 20260831024607 | 20 | 103 | 0.0 | 3.2 | 0.00 | 1.14 | 1.14 | 91 | 1017.6 |
| 20260831023045 | 20 | 114 | 0.0 | 3.2 | 0.00 | 1.14 | 1.14 | 90 | 1017.5 |
| 20260831021540 | 21 | 114 | 0.0 | 4.8 | 0.00 | 1.14 | 1.14 | 90 | 1017.5 |
| 20260831020041 | 21 | 162 | 0.0 | 9.7 | 0.00 | 1.14 | 1.14 | 89 | 1017.3 |
| 20260831014541 | 21 | 155 | 1.6 | 6.4 | 0.00 | 1.14 | 1.14 | 89 | 1017.2 |
| 20260831013054 | 21 | 82 | 1.6 | 6.4 | 0.00 | 1.14 | 1.14 | 89 | 1017.1 |
| 20260831011542 | 21 | 115 | 3.2 | 6.4 | 0.00 | 1.14 | 1.14 | 89 | 1017.1 |
| 20260831010049 | 21 | 158 | 1.6 | 6.4 | 0.00 | 1.14 | 1.14 | 88 | 1017.1 |
| 20260831004547 | 21 | 87 | 4.8 | 9.7 | 0.00 | 1.14 | 1.14 | 88 | 1016.5 |
| 20260831003044 | 21 | 117 | 1.6 | 12.9 | 0.00 | 1.14 | 1.14 | 88 | 1016.6 |
| 20260831001541 | 21 | 104 | 3.2 | 11.3 | 0.00 | 1.14 | 1.14 | 87 | 1016.3 |
| 20260831000048 | 21 | 106 | 4.8 | 14.5 | 0.00 | 1.14 | 1.14 | 87 | 1016.5 |
| 20260830234547 | 21 | 113 | 4.8 | 12.9 | 0.00 | 1.14 | 1.14 | 87 | 1016.6 |
| 20260830233051 | 21 | 75 | 3.2 | 9.7 | 0.00 | 1.14 | 1.14 | 87 | 1017.0 |
| 20260830231540 | 21 | 65 | 3.2 | 11.3 | 0.00 | 1.14 | 1.14 | 87 | 1016.8 |
| 20260830230049 | 21 | 115 | 3.2 | 8.0 | 0.00 | 1.14 | 1.14 | 87 | 1017.1 |
| 20260830224543 | 21 | 138 | 3.2 | 8.0 | 0.00 | 1.14 | 1.14 | 88 | 1017.1 |
| 20260830223040 | 21 | 97 | 1.6 | 6.4 | 0.10 | 1.14 | 1.14 | 89 | 1017.3 |
| 20260830221545 | 21 | 103 | 1.6 | 4.8 | 0.25 | 1.14 | 1.14 | 90 | 1017.3 |
| 20260830220048 | 21 | 143 | 0.0 | 3.2 | 0.25 | 1.14 | 1.14 | 90 | 1017.5 |
| 20260830214541 | 21 | 0 | 0.0 | 4.8 | 0.25 | 1.14 | 1.14 | 88 | 1017.7 |
| 20260830213043 | 22 | 224 | 0.0 | 4.8 | 0.15 | 1.04 | 1.04 | 85 | 1018.0 |
| 20260830211541 | 22 | 0 | 0.0 | 3.2 | 0.00 | 0.89 | 0.89 | 81 | 1017.8 |
| 20260830210052 | 22 | 198 | 1.6 | 9.7 | 0.00 | 0.89 | 0.89 | 80 | 1017.5 |
| 20260830204543 | 22 | 175 | 0.0 | 8.0 | 0.00 | 0.89 | 0.89 | 80 | 1017.4 |
| 20260830203057 | 22 | 162 | 4.8 | 14.5 | 0.00 | 0.89 | 0.89 | 80 | 1017.0 |
| 20260830201547 | 23 | 131 | 3.2 | 17.7 | 0.00 | 0.89 | 0.89 | 79 | 1017.0 |
| 20260830200041 | 23 | 191 | 3.2 | 12.9 | 0.00 | 0.89 | 0.89 | 79 | 1017.4 |
| 20260830194542 | 23 | 104 | 6.4 | 16.1 | 0.00 | 0.89 | 0.89 | 79 | 1017.2 |
| 20260830193042 | 22 | 229 | 4.8 | 11.3 | 0.00 | 0.89 | 0.89 | 81 | 1017.2 |
| 20260830191541 | 22 | 98 | 0.0 | 8.0 | 0.00 | 0.89 | 0.89 | 82 | 1017.2 |
| 20260830190043 | 22 | 127 | 6.4 | 17.7 | 0.00 | 0.89 | 0.89 | 82 | 1017.2 |
| 20260830184542 | 22 | 110 | 4.8 | 11.3 | 0.00 | 0.89 | 0.89 | 83 | 1017.3 |
| 20260830183041 | 22 | 109 | 1.6 | 9.7 | 0.00 | 0.89 | 0.89 | 83 | 1017.7 |
| 20260830181554 | 22 | 160 | 4.8 | 14.5 | 0.00 | 0.89 | 0.89 | 82 | 1017.6 |
| 20260830180049 | 22 | 195 | 4.8 | 14.5 | 0.00 | 0.89 | 0.89 | 82 | 1017.3 |
| 20260830174542 | 22 | 87 | 6.4 | 20.9 | 0.00 | 0.89 | 0.89 | 82 | 1017.6 |
| 20260830173104 | 22 | 129 | 6.4 | 17.7 | 0.00 | 0.89 | 0.89 | 84 | 1018.0 |
| 20260830171544 | 21 | 214 | 8.0 | 17.7 | 0.00 | 0.89 | 0.89 | 86 | 1018.5 |
| 20260830170051 | 20 | 158 | 3.2 | 12.9 | 0.00 | 0.89 | 0.89 | 90 | 1018.9 |
| 20260830164605 | 20 | 104 | 3.2 | 11.3 | 0.00 | 0.89 | 0.89 | 90 | 1019.3 |
| 20260830163058 | 20 | 356 | 4.8 | 12.9 | 0.00 | 0.89 | 0.89 | 90 | 1019.6 |
| 20260830161547 | 20 | 167 | 3.2 | 8.0 | 0.00 | 0.89 | 0.89 | 92 | 1019.7 |
| 20260830160049 | 20 | 86 | 3.2 | 9.7 | 0.03 | 0.89 | 0.89 | 93 | 1019.8 |
| 20260830154542 | 19 | 146 | 1.6 | 4.8 | 0.08 | 0.89 | 0.89 | 94 | 1020.0 |
| 20260830153041 | 19 | 113 | 1.6 | 6.4 | 0.10 | 0.89 | 0.89 | 95 | 1019.9 |
| 20260830151549 | 18 | 167 | 1.6 | 4.8 | 0.13 | 0.89 | 0.89 | 95 | 1020.1 |
| 20260830150049 | 18 | 225 | 1.6 | 6.4 | 0.15 | 0.86 | 0.86 | 95 | 1020.3 |
| 20260830144557 | 18 | 234 | 1.6 | 8.0 | 0.18 | 0.81 | 0.81 | 95 | 1020.2 |
| 20260830143041 | 18 | 110 | 3.2 | 6.4 | 0.25 | 0.79 | 0.79 | 95 | 1020.4 |
| 20260830141541 | 18 | 226 | 1.6 | 9.7 | 0.30 | 0.76 | 0.76 | 95 | 1020.7 |
| 20260830140048 | 18 | 248 | 0.0 | 3.2 | 0.36 | 0.71 | 0.71 | 95 | 1020.8 |
| 20260830134542 | 18 | 247 | 0.0 | 1.6 | 0.38 | 0.64 | 0.64 | 95 | 1020.6 |
| 20260830133057 | 18 | 0 | 0.0 | 0.0 | 0.36 | 0.53 | 0.53 | 95 | 1020.8 |
| 20260830131548 | 18 | 0 | 0.0 | 3.2 | 0.30 | 0.46 | 0.46 | 95 | 1020.6 |
| 20260830130041 | 18 | 266 | 0.0 | 4.8 | 0.23 | 0.36 | 0.36 | 95 | 1020.6 |
| 20260830124603 | 18 | 0 | 0.0 | 1.6 | 0.13 | 0.25 | 0.25 | 95 | 1020.6 |
| 20260830123047 | 18 | 0 | 0.0 | 1.6 | 0.05 | 0.18 | 0.18 | 94 | 1020.4 |
| 20260830121539 | 18 | 0 | 0.0 | 0.0 | 0.03 | 0.15 | 0.15 | 94 | 1019.9 |
| 20260830120045 | 18 | 0 | 0.0 | 1.6 | 0.00 | 0.13 | 0.13 | 93 | 1019.6 |
| 20260830114546 | 18 | 0 | 0.0 | 3.2 | 0.00 | 0.13 | 0.13 | 93 | 1019.1 |
| 20260830113042 | 18 | 110 | 0.0 | 1.6 | 0.00 | 0.13 | 0.13 | 93 | 1018.5 |
| 20260830111543 | 18 | 116 | 1.6 | 6.4 | 0.00 | 0.13 | 0.13 | 93 | 1018.1 |
| 20260830110047 | 18 | 103 | 1.6 | 3.2 | 0.00 | 0.13 | 0.13 | 93 | 1018.2 |
| 20260830104541 | 18 | 106 | 1.6 | 3.2 | 0.00 | 0.13 | 0.13 | 93 | 1018.2 |
| 20260830103043 | 18 | 104 | 1.6 | 4.8 | 0.00 | 0.13 | 0.13 | 93 | 1018.3 |
| 20260830101540 | 18 | 108 | 1.6 | 4.8 | 0.00 | 0.13 | 0.13 | 94 | 1018.4 |
| 20260830100050 | 18 | 115 | 1.6 | 4.8 | 0.00 | 0.13 | 0.13 | 94 | 1018.6 |
| 20260830094545 | 18 | 117 | 0.0 | 1.6 | 0.00 | 0.13 | 0.13 | 95 | 1018.8 |
| 20260830093051 | 18 | 0 | 0.0 | 3.2 | 0.08 | 0.13 | 0.13 | 95 | 1018.9 |
| 20260830091542 | 18 | 98 | 0.0 | 3.2 | 0.10 | 0.13 | 0.13 | 95 | 1018.8 |
| 20260830090050 | 18 | 0 | 0.0 | 1.6 | 0.10 | 0.13 | 0.13 | 95 | 1018.9 |
| 20260830084549 | 18 | 0 | 0.0 | 0.0 | 0.10 | 0.13 | 0.13 | 95 | 1019.3 |
| 20260830083104 | 18 | 0 | 0.0 | 0.0 | 0.03 | 0.05 | 0.05 | 94 | 1019.6 |
| 20260830081541 | 17 | 0 | 0.0 | 0.0 | 0.00 | 0.03 | 0.03 | 94 | 1019.5 |
| 20260830080040 | 17 | 0 | 0.0 | 0.0 | 0.00 | 0.03 | 0.03 | 94 | 1019.7 |
| 20260830074548 | 17 | 0 | 0.0 | 0.0 | 0.00 | 0.03 | 0.03 | 94 | 1019.7 |
| 20260830073042 | 17 | 0 | 0.0 | 0.0 | 0.00 | 0.03 | 0.03 | 94 | 1019.7 |
| 20260830071546 | 18 | 0 | 0.0 | 0.0 | 0.00 | 0.03 | 0.03 | 94 | 1019.7 |
| 20260830064541 | 17 | 0 | 0.0 | 0.0 | 0.00 | 0.03 | 0.03 | 94 | 1019.7 |
| 20260830063041 | 18 | 0 | 0.0 | 0.0 | 0.00 | 0.03 | 0.03 | 94 | 1019.6 |
| 20260830061543 | 18 | 0 | 0.0 | 0.0 | 0.00 | 0.03 | 0.03 | 93 | 1019.5 |
| 20260830060043 | 18 | 0 | 0.0 | 0.0 | 0.00 | 0.03 | 0.03 | 93 | 1019.7 |
| 20260830054541 | 18 | 0 | 0.0 | 0.0 | 0.00 | 0.03 | 0.03 | 93 | 1019.6 |
| 20260830053041 | 18 | 0 | 0.0 | 1.6 | 0.03 | 0.03 | 0.03 | 92 | 1019.7 |
| 20260830051549 | 18 | 0 | 0.0 | 1.6 | 0.03 | 0.03 | 0.03 | 92 | 1020.2 |
| 20260830050041 | 18 | 0 | 0.0 | 1.6 | 0.03 | 0.03 | 0.03 | 91 | 1020.1 |
| 20260830044540 | 18 | 32 | 1.6 | 3.2 | 0.03 | 0.03 | 0.03 | 89 | 1019.9 |
| 20260830043046 | 19 | 0 | 0.0 | 0.0 | 0.00 | 0.00 | 0.00 | 85 | 1019.8 |
| 20260830041550 | 20 | 0 | 0.0 | 1.6 | 0.00 | 0.00 | 0.00 | 82 | 1020.0 |